User: anonymous   Login
Location: Cranbrook Institute of Science
(42.5830°N, 83.2450°W)
Time: 22:33:08
(UTC-04:00)
Language:

CZ-4B R/B - Orbit

View from above orbital plane
View from above orbital plane
View from above satellite
View from above satellite

Ground track
Ground track

The orbit data is extracted from the following two-line orbital elements,

1 29093U 06015B   16182.83519516  .00003252  00000-0  85420-4 0  9996
2 29093  97.4849 280.4262 0070338 137.8141 222.8546 15.36870022563519
Epoch (UTC): 30 June 2016 20:02:40
Eccentricity: 0.0070338
inclination: 97.4849°
perigee height: 407 km
apogee height: 503 km
right ascension of ascending node: 280.4262°
argument of perigee: 137.8141°
revolutions per day: 15.36870022
mean anomaly at epoch: 222.8546°
orbit number at epoch: 56351

The dashed part of the orbit path shows where the satellite is in the earth's shadow,  

DLR